Date String (YYYY-MM-DD hh:mm:ss) UTC,Instrument flags,absolute air pressure of the measurement (hPa),sample flow rate (lpm),inlet stack bypass flow (lpm),air temperature of the measurement (°C),ambient temperature measured by the external sensor (°C),aerosol sample conditioner tube jacket temperature (°C),OPC LED temperature (°C),internal box temperature (°C),relative humidity of the measurement (%),span deviation,mass concentration of particles derived from Lorenz-Mie calculation of OPC scattering (μg/m³),mass concentration of particles derived from Lorenz-Mie calculation of OPC scattering (μg/m³),mass concentration of particles derived from Lorenz-Mie calculation of OPC scattering (μg/m³)
DateTimeUTC,F1_M11,P_M11,Q1_M11,Q2_M11,T1_M11,T2_M11,T3_M11,T4_M11,T5_M11,U1_M11,ZSPAN_M11,X0_M11,X2_M11,X1_M11
2024-02-21 03:00:00,SystemResetWarning,0828.9,5.00,000.00,025.5,024.8,000.0,034.0,027.3,14.9,0000.0,0001.47,0000.66,0000.42
2024-02-21 03:01:00,SystemResetWarning,0828.8,4.99,000.00,025.5,024.8,000.0,034.0,027.3,14.9,0000.0,0001.55,0000.66,0000.41
2024-02-21 03:02:00,SystemResetWarning,0828.8,5.00,000.00,025.5,024.8,000.0,034.0,027.3,14.9,0000.0,0001.62,0000.67,0000.41
2024-02-21 03:03:00,SystemResetWarning,0828.8,5.00,000.00,025.5,024.8,000.0,034.0,027.3,14.9,0000.0,0001.51,0000.64,0000.41
2024-02-21 03:04:00,SystemResetWarning,0828.9,4.99,000.00,025.5,024.8,000.0,034.0,027.3,14.9,0000.0,0001.58,0000.64,0000.41
2024-02-21 03:05:00,SystemResetWarning,0829.0,5.00,000.00,025.5,024.8,000.0,034.0,027.4,15.0,0000.0,0001.29,0000.64,0000.41
2024-02-21 03:06:00,SystemResetWarning,0828.9,5.00,000.00,025.5,024.8,000.0,034.0,027.4,14.9,0000.0,0001.25,0000.62,0000.40
2024-02-21 03:07:00,SystemResetWarning,0828.9,5.01,000.00,025.5,024.8,000.0,034.0,027.4,14.9,0000.0,0001.17,0000.58,0000.40
2024-02-21 03:08:00,SystemResetWarning,0829.0,5.01,000.00,025.5,024.9,000.0,034.0,027.4,14.8,0000.0,0001.16,0000.57,0000.40
2024-02-21 03:09:00,SystemResetWarning,0828.9,4.99,000.00,025.6,024.9,000.0,034.0,027.4,14.8,0000.0,0001.11,0000.55,0000.40
2024-02-21 03:10:00,SystemResetWarning,0828.9,4.99,000.00,025.6,024.9,000.0,034.0,027.4,14.7,0000.0,0001.04,0000.53,0000.40
2024-02-21 03:11:00,SystemResetWarning,0828.9,5.01,000.00,025.6,024.9,000.0,034.0,027.4,14.7,0000.0,0001.02,0000.52,0000.39
2024-02-21 03:12:00,SystemResetWarning,0828.9,5.01,000.00,025.6,024.9,000.0,034.0,027.5,14.7,0000.0,0001.07,0000.55,0000.39
2024-02-21 03:13:00,SystemResetWarning,0828.9,5.00,000.00,025.6,024.9,000.0,034.0,027.5,14.7,0000.0,0001.03,0000.54,0000.39
2024-02-21 03:14:00,SystemResetWarning,0828.8,5.00,000.00,025.6,024.9,000.0,034.0,027.5,14.7,0000.0,0001.30,0000.53,0000.38
2024-02-21 03:15:00,SystemResetWarning,0828.8,5.00,000.00,025.6,024.9,000.0,034.0,027.4,14.7,0000.0,0002.63,0000.52,0000.39
2024-02-21 03:16:00,SystemResetWarning,0828.9,4.99,000.00,025.6,024.9,000.0,034.0,027.5,14.7,0000.0,0002.59,0000.53,0000.40
2024-02-21 03:17:00,SystemResetWarning,0828.8,5.00,000.00,025.6,024.9,000.0,034.0,027.5,14.7,0000.0,0002.73,0000.55,0000.40
2024-02-21 03:18:00,SystemResetWarning,0828.9,5.00,000.00,025.6,024.9,000.0,034.0,027.4,14.7,0000.0,0003.00,0000.55,0000.41
2024-02-21 03:19:00,SystemResetWarning,0828.9,5.00,000.00,025.6,024.9,000.0,034.0,027.5,14.7,0000.0,0003.01,0000.56,0000.41
2024-02-21 03:20:00,SystemResetWarning,0828.9,5.00,000.00,025.6,024.9,000.0,034.1,027.5,14.7,0000.0,0003.07,0000.57,0000.41
2024-02-21 03:21:00,SystemResetWarning,0828.8,5.00,000.00,025.6,024.9,000.0,034.0,027.5,14.6,0000.0,0003.13,0000.58,0000.41
2024-02-21 03:22:00,SystemResetWarning,0828.8,5.00,000.00,025.6,024.9,000.0,034.1,027.5,14.6,0000.0,0003.20,0000.62,0000.42
2024-02-21 03:23:00,SystemResetWarning,0828.8,4.99,000.00,025.6,024.9,000.0,034.1,027.5,14.7,0000.0,0003.07,0000.58,0000.43
2024-02-21 03:24:00,SystemResetWarning,0828.8,5.01,000.00,025.6,024.9,000.0,034.1,027.5,14.6,0000.0,0003.02,0000.57,0000.44
2024-02-21 03:25:00,SystemResetWarning,0828.8,5.01,000.00,025.6,024.9,000.0,034.1,027.5,14.7,0000.0,0002.79,0000.59,0000.44
2024-02-21 03:26:00,SystemResetWarning,0828.8,5.01,000.00,025.6,024.9,000.0,034.1,027.5,14.7,0000.0,0001.33,0000.59,0000.44
2024-02-21 03:27:00,SystemResetWarning,0828.7,4.99,000.00,025.6,024.9,000.0,034.1,027.4,14.7,0000.0,0001.32,0000.58,0000.44
2024-02-21 03:28:00,SystemResetWarning,0828.8,5.00,000.00,025.6,024.8,000.0,034.1,027.4,14.7,0000.0,0001.18,0000.58,0000.44
2024-02-21 03:29:00,SystemResetWarning,0828.9,4.99,000.00,025.6,024.8,000.0,034.1,027.4,14.7,0000.0,0000.88,0000.57,0000.44
2024-02-21 03:30:00,SystemResetWarning,0829.0,5.00,000.00,025.6,024.8,000.0,034.1,027.4,14.7,0000.0,0001.06,0000.61,0000.45
2024-02-21 03:31:00,SystemResetWarning,0829.0,5.00,000.00,025.6,024.8,000.0,034.1,027.4,14.7,0000.0,0001.17,0000.65,0000.45
2024-02-21 03:32:00,SystemResetWarning,0829.0,4.99,000.00,025.6,024.8,000.0,034.1,027.4,14.6,0000.0,0001.11,0000.64,0000.46
2024-02-21 03:33:00,SystemResetWarning,0828.9,5.00,000.00,025.5,024.8,000.0,034.0,027.4,14.6,0000.0,0001.07,0000.61,0000.45
2024-02-21 03:34:00,SystemResetWarning,0828.9,5.01,000.00,025.6,024.8,000.0,034.0,027.4,14.6,0000.0,0001.14,0000.65,0000.45
2024-02-21 03:35:00,SystemResetWarning,0829.0,5.01,000.00,025.6,024.8,000.0,034.0,027.4,14.6,0000.0,0001.14,0000.66,0000.45
2024-02-21 03:36:00,SystemResetWarning,0828.9,5.01,000.00,025.6,024.8,000.0,034.0,027.4,14.6,0000.0,0001.17,0000.68,0000.46
2024-02-21 03:37:00,SystemResetWarning,0829.0,5.00,000.00,025.6,024.8,000.0,034.0,027.4,14.6,0000.0,0001.22,0000.69,0000.46
2024-02-21 03:38:00,SystemResetWarning,0828.9,4.99,000.00,025.6,024.8,000.0,034.0,027.4,14.6,0000.0,0001.20,0000.68,0000.45
2024-02-21 03:39:00,SystemResetWarning,0829.0,5.00,000.00,025.6,024.8,000.0,034.0,027.4,14.6,0000.0,0001.20,0000.67,0000.45
2024-02-21 03:40:00,SystemResetWarning,0828.9,5.00,000.00,025.6,024.9,000.0,034.0,027.4,14.6,0000.0,0001.20,0000.67,0000.45
2024-02-21 03:41:00,SystemResetWarning,0829.0,5.00,000.00,025.6,024.9,000.0,034.0,027.4,14.6,0000.0,0000.99,0000.62,0000.44
2024-02-21 03:42:00,SystemResetWarning,0829.0,5.00,000.00,025.6,024.8,000.0,034.0,027.4,14.6,0000.0,0000.83,0000.57,0000.43
2024-02-21 03:43:00,SystemResetWarning,0829.0,5.00,000.00,025.5,024.8,000.0,034.0,027.3,14.6,0000.0,0000.85,0000.57,0000.42
2024-02-21 03:44:00,SystemResetWarning,0828.9,5.00,000.00,025.5,024.8,000.0,034.0,027.3,14.6,0000.0,0000.87,0000.58,0000.42
2024-02-21 03:45:00,SystemResetWarning,0829.0,5.01,000.00,025.5,024.8,000.0,034.0,027.3,14.6,0000.0,0001.42,0000.55,0000.43
2024-02-21 03:46:00,SystemResetWarning,0828.9,5.00,000.00,025.5,024.7,000.0,034.0,027.3,14.7,0000.0,0001.82,0000.55,0000.43
2024-02-21 03:47:00,SystemResetWarning,0828.8,5.00,000.00,025.5,024.7,000.0,034.0,027.3,14.7,0000.0,0001.80,0000.53,0000.43
2024-02-21 03:48:00,SystemResetWarning,0828.8,4.99,000.00,025.5,024.7,000.0,034.0,027.3,14.7,0000.0,0001.77,0000.53,0000.43
2024-02-21 03:49:00,SystemResetWarning,0828.8,5.00,000.00,025.5,024.7,000.0,034.0,027.2,14.6,0000.0,0001.76,0000.53,0000.43
2024-02-21 03:50:00,SystemResetWarning,0828.7,5.00,000.00,025.4,024.7,000.0,034.0,027.2,14.7,0000.0,0001.73,0000.52,0000.43
2024-02-21 03:51:00,SystemResetWarning,0828.7,5.00,000.00,025.4,024.7,000.0,034.0,027.2,14.7,0000.0,0001.74,0000.52,0000.43
2024-02-21 03:52:00,SystemResetWarning,0828.8,5.00,000.00,025.4,024.7,000.0,034.0,027.2,14.7,0000.0,0001.76,0000.53,0000.43
2024-02-21 03:53:00,SystemResetWarning,0828.8,5.00,000.00,025.4,024.7,000.0,034.0,027.2,14.7,0000.0,0001.81,0000.55,0000.44
2024-02-21 03:54:00,SystemResetWarning,0828.8,5.00,000.00,025.4,024.7,000.0,033.9,027.2,14.7,0000.0,0001.77,0000.55,0000.45
2024-02-21 03:55:00,SystemResetWarning,0828.8,5.00,000.00,025.4,024.7,000.0,033.9,027.2,14.7,0000.0,0001.75,0000.54,0000.45
2024-02-21 03:56:00,SystemResetWarning,0828.7,5.00,000.00,025.4,024.7,000.0,033.9,027.2,14.7,0000.0,0001.47,0000.54,0000.45
2024-02-21 03:57:00,SystemResetWarning,0828.7,5.00,000.00,025.4,024.7,000.0,033.9,027.2,14.7,0000.0,0000.80,0000.55,0000.45
2024-02-21 03:58:00,SystemResetWarning,0828.7,4.99,000.00,025.4,024.7,000.0,033.9,027.2,14.7,0000.0,0000.83,0000.55,0000.45
2024-02-21 03:59:00,SystemResetWarning,0828.7,5.00,000.00,025.4,024.6,000.0,033.9,027.2,14.7,0000.0,0000.97,0000.57,0000.45
